{"data":{"norad_id":48244,"intl_designator":"2021-031AL","name":"ONEWEB-0200","alt_names":[],"object_type":"PAYLOAD","status":"ACTIVE","operator":null,"country":"UK","launch_date":"2021-04-25","launch_site_code":"VOSTO","launch_vehicle":null,"mission":null,"orbit_class":"UNKNOWN","rcs_meters":null,"size_class":null,"mass_kg":null,"dimensions":null,"purposes":["comms"],"wikipedia_slug":null,"has_3d_model":false,"image_url":null,"decayed_at":null,"tle_current":{"epoch":"2026-09-19T17:42:57.336768Z","epoch_age_seconds":84127,"freshness":"FRESH","line1":"1 48244U 21031AL  26262.73816362 -.00000137  00000+0 -40353-3 0  9993","line2":"2 48244  87.8904 270.8426 0001695  96.3224 263.8099 13.14503602260657","mean_motion":13.14503602,"eccentricity":0.0001695,"inclination_deg":87.8904,"raan_deg":270.8426,"arg_perigee_deg":96.3224,"mean_anomaly_deg":263.8099,"bstar":-0.00040353,"rev_number":26065,"period_min":109.54705622785,"perigee_km":1204.5017947617,"apogee_km":1207.0727450892,"semimajor_km":7583.9242699254,"source":"CELESTRAK","updated_at":"2026-09-20T09:00:44.614041Z"}}}